Weather in Saint Francois

Guadeloupe     16°19′34″N   61°25′41″W
temp.,
°C
wind,
m/s
gust,
m/s
humid.,
%
clouds,
%
prec.,
mm/h
press.,
hPa
HPBL,
m
12 august, fri
fri1223:00+26ene4784100 0.3 1016444
02:00+25ene3685100 0.4 1014326
05:00+25ene3684100 0.2 1015344
08:00+27ene4777100 0.3 1015744
11:00+29ene6770100 0.2 10151134
14:00+30e576555 0.6 10141169
17:00+28e567198 0.3 1014935
20:00+26ene478297 0.6 1015427
13 august, sat
sat1323:00+26ene368372 0.1 1015307
02:00+25ene378260 0.4 1014292
05:00+26e378389 0.4 1014335
08:00+28e567560 0.7 1015847
11:00+29e566933 1.0 1015994
14:00+30ese456729 4.3 1014958
17:00+28ese447212 0.7 1013787
20:00+26e24856 0.8 1015246
14 august, sun
sun1423:00+26e24865 0.1 1016215
02:00+25ese35885 0.3 1014222
05:00+25se35865 0.0 1014219
08:00+28se467510 0.0 1015869
11:00+29sse56696 0.3 1015966
14:00+30sse576814 1.6 1014975
17:00+28sse577026 0.3 1014860
20:00+27se468294 0.4 1015414
15 august, mon
mon1523:00+26se36837 0.1 1016344
02:00+26se36825 0.1 1014319
05:00+26se47825 1.2 1014390
08:00+27se477945 2.9 1016649
11:00+29se576695 1.6 10161064
14:00+30se566541 1.7 10141053
17:00+28se457411 0.1 1014777
20:00+26ese35849 0.3 1016299
16 august, tue
tue1623:00+26ese368411 0.1 1016315
02:00+25ese368927 1.3 1015310
05:00+25ese488511 0.6 1015407
08:00+27e57748 0.6 1016956
11:00+29ese676911 0.3 10161011
14:00+30ese67620 0.3 10151057
17:00+28ese57650 0.0 1014927
20:00+26e36780 0.0 1016379